Daviess Cnty AP, Washington,, IN

7:51 AM EST on November 20, 2017 (GMT -0500)
Daviess County

Weather History for KDCY - April, 2014

Change the Weather History Date:

Tuesday, April 1, 2014

  Actual Average (KLWV) Record (KLWV)
Temperature  
Mean Temperature 58 °F -  
Max Temperature 67 °F 59 °F 85 °F (2012)
Min Temperature 50 °F 38 °F 30 °F (2002)
Degree Days  
Heating Degree Days 6    
Growing Degree Days 8 (Base 50)    
Moisture  
Dew Point 41 °F    
Average Humidity 53    
Maximum Humidity 86    
Minimum Humidity 29    
Precipitation  
Precipitation 0.03 in - - ()
Sea Level Pressure  
Sea Level Pressure 29.99 in    
Wind  
Wind Speed 10 mph (WSW)    
Max Wind Speed 18 mph    
Max Gust Speed 25 mph    
Visibility 10 miles    
Events Rain    
Averages and records for this station are not official NWS values.
T = Trace of Precipitation, MM = Missing Value Source: NWS Daily Summary

Daily Weather History Graph

Daily Weather History Graph

Search for Another Location

Airport or City:

Trip Planner

Search our weather history database for the weather conditions in past years. The results will help you decide how hot, cold, wet, or windy it might be!

Date:

Astronomy

Apr. 01, 2014 Rise Set
Actual Time 7:33 AM EDT 8:12 PM EDT
Civil Twilight 7:06 AM EDT 8:38 PM EDT
Nautical Twilight 6:34 AM EDT 9:10 PM EDT
Astronomical Twilight 6:02 AM EDT 9:43 PM EDT
Moon 8:36 AM EDT (4/1) 10:32 PM EDT (4/1)
Length of Visible Light 13h 32m
Length of Day
12h 38m
Waxing Crescent, 4% of the Moon is Illuminated
Apr 1
Waxing Crescent
Apr 7
First Quarter
Apr 15
Full
Apr 22
Last Quarter
Apr 29
New

Hourly Weather History & Observations

Time (EDT) Temp. Dew Point Humidity Pressure Visibility Wind Dir Wind Speed Gust Speed Precip Events Conditions
12:15 AM 57.4 °F 39.0 °F 50% 29.93 in 10.0 mi South 8.1 mph - N/A   Overcast
12:35 AM 55.8 °F 41.4 °F 58% 29.93 in 10.0 mi SSW 5.8 mph - N/A   Overcast
12:55 AM 59.0 °F 38.7 °F 47% 29.92 in 10.0 mi South 6.9 mph - N/A Rain Rain
1:15 AM 56.7 °F 41.7 °F 57% 29.92 in 10.0 mi South 8.1 mph - N/A Rain Light Rain
1:35 AM 57.0 °F 40.6 °F 54% 29.91 in 10.0 mi SSE 6.9 mph - N/A   Overcast
2:15 AM 55.9 °F 41.5 °F 58% 29.91 in 10.0 mi South 10.4 mph - N/A   Overcast
2:35 AM 57.6 °F 40.3 °F 53% 29.92 in 10.0 mi South 10.4 mph - N/A   Overcast
2:55 AM 60.4 °F 39.7 °F 46% 29.91 in 10.0 mi SSW 12.7 mph 20.7 mph N/A Rain Light Rain
3:15 AM 59.2 °F 41.2 °F 51% 29.91 in 10.0 mi SSW 10.4 mph - N/A   Overcast
3:35 AM 59.4 °F 40.1 °F 49% 29.91 in 10.0 mi SW 12.7 mph 17.3 mph N/A   Scattered Clouds
3:55 AM 59.0 °F 41.0 °F 51% 29.91 in 10.0 mi SSW 12.7 mph - N/A   Clear
4:15 AM 58.6 °F 42.1 °F 54% 29.90 in 10.0 mi SSW 12.7 mph 17.3 mph N/A   Scattered Clouds
4:35 AM 58.8 °F 42.8 °F 55% 29.90 in 10.0 mi SSW 12.7 mph 17.3 mph N/A   Clear
4:55 AM 58.8 °F 43.2 °F 56% 29.90 in 10.0 mi SW 12.7 mph 17.3 mph N/A   Clear
5:15 AM 57.4 °F 43.5 °F 60% 29.90 in 10.0 mi SSW 10.4 mph - N/A   Clear
5:35 AM 56.8 °F 43.7 °F 61% 29.90 in 10.0 mi SSW 9.2 mph - N/A   Clear
5:55 AM 55.9 °F 43.9 °F 64% 29.90 in 10.0 mi SSW 10.4 mph - N/A   Clear
6:15 AM 55.6 °F 44.1 °F 65% 29.89 in 10.0 mi SSW 10.4 mph - N/A   Clear
6:35 AM 55.2 °F 44.6 °F 67% 29.90 in 10.0 mi SSW 11.5 mph 16.1 mph N/A   Clear
6:55 AM 55.0 °F 44.8 °F 68% 29.90 in 10.0 mi SSW 10.4 mph - N/A   Clear
7:15 AM 54.7 °F 45.0 °F 70% 29.91 in 10.0 mi SSW 11.5 mph - N/A   Clear
7:35 AM 54.9 °F 45.3 °F 70% 29.92 in 10.0 mi SSW 11.5 mph - N/A   Clear
7:55 AM 55.0 °F 45.7 °F 71% 29.93 in 10.0 mi SSW 8.1 mph 17.3 mph N/A   Clear
8:15 AM 55.2 °F 46.4 °F 72% 29.94 in 10.0 mi SW 11.5 mph 17.3 mph N/A   Clear
8:35 AM 56.3 °F 46.6 °F 70% 29.95 in 10.0 mi WSW 12.7 mph 18.4 mph N/A   Clear
8:55 AM 57.6 °F 46.9 °F 68% 29.96 in 10.0 mi WSW 13.8 mph 18.4 mph N/A   Clear
9:15 AM 58.3 °F 46.4 °F 65% 29.96 in 10.0 mi WSW 18.4 mph 25.3 mph N/A   Clear
9:35 AM 58.8 °F 46.2 °F 63% 29.97 in 10.0 mi WSW 17.3 mph 23.0 mph N/A   Clear
9:55 AM 59.2 °F 46.2 °F 62% 29.98 in 10.0 mi West 17.3 mph 25.3 mph N/A   Clear
10:15 AM 59.2 °F 45.7 °F 61% 29.99 in 10.0 mi WSW 16.1 mph 24.2 mph N/A   Clear
10:35 AM 60.4 °F 45.0 °F 57% 30.00 in 10.0 mi West 16.1 mph 24.2 mph N/A   Clear
10:55 AM 60.6 °F 44.6 °F 56% 30.00 in 10.0 mi West 11.5 mph - N/A   Clear
11:15 AM 59.4 °F 43.7 °F 56% 30.01 in 10.0 mi WNW 16.1 mph - N/A   Clear
11:35 AM 59.4 °F 41.0 °F 51% 30.02 in 10.0 mi WNW 13.8 mph - N/A   Clear
11:55 AM 60.3 °F 39.2 °F 46% 30.02 in 10.0 mi WNW 16.1 mph 21.9 mph N/A   Clear
12:15 PM 60.6 °F 38.8 °F 45% 30.03 in 10.0 mi West 13.8 mph - N/A   Clear
12:35 PM 61.7 °F 39.0 °F 43% 30.03 in 10.0 mi West 16.1 mph - N/A   Clear
12:55 PM 62.1 °F 37.0 °F 39% 30.03 in 10.0 mi West 15.0 mph 23.0 mph N/A   Clear
1:15 PM 63.0 °F 38.5 °F 40% 30.03 in 10.0 mi WSW 13.8 mph 19.6 mph N/A   Clear
1:35 PM 63.3 °F 37.9 °F 39% 30.03 in 10.0 mi West 11.5 mph 20.7 mph N/A   Clear
1:55 PM 64.4 °F 38.3 °F 38% 30.03 in 10.0 mi WSW 13.8 mph 20.7 mph N/A   Clear
2:15 PM 65.3 °F 36.9 °F 35% 30.03 in 10.0 mi West 12.7 mph - N/A   Clear
2:35 PM 66.0 °F 37.6 °F 35% 30.03 in 10.0 mi WSW 15.0 mph 19.6 mph N/A   Clear
2:55 PM 66.4 °F 36.5 °F 33% 30.03 in 10.0 mi WSW 13.8 mph - N/A   Clear
3:15 PM 66.6 °F 35.6 °F 32% 30.03 in 10.0 mi West 15.0 mph - N/A   Clear
3:35 PM 67.1 °F 36.1 °F 32% 30.02 in 10.0 mi West 16.1 mph 19.6 mph N/A   Clear
3:55 PM 66.9 °F 34.7 °F 30% 30.02 in 10.0 mi West 12.7 mph 19.6 mph N/A   Clear
4:15 PM 67.3 °F 34.2 °F 29% 30.02 in 10.0 mi West 16.1 mph 19.6 mph N/A   Clear
4:35 PM 67.1 °F 34.5 °F 30% 30.02 in 10.0 mi West 12.7 mph - N/A   Clear
4:55 PM 67.6 °F 34.7 °F 30% 30.01 in 10.0 mi WNW 9.2 mph 16.1 mph N/A   Scattered Clouds
5:15 PM 67.3 °F 34.0 °F 29% 30.01 in 10.0 mi West 6.9 mph - N/A   Scattered Clouds
5:35 PM 67.5 °F 34.2 °F 29% 30.01 in 10.0 mi West 11.5 mph - N/A   Scattered Clouds
5:55 PM 66.6 °F 33.3 °F 29% 30.01 in 10.0 mi WNW 10.4 mph - N/A   Scattered Clouds
6:15 PM 64.8 °F 35.4 °F 34% 30.01 in 10.0 mi WNW 5.8 mph - N/A   Scattered Clouds
6:35 PM 63.7 °F 37.9 °F 39% 30.02 in 10.0 mi WNW 8.1 mph - N/A   Scattered Clouds
6:55 PM 62.8 °F 35.8 °F 37% 30.04 in 10.0 mi WNW 9.2 mph - N/A   Mostly Cloudy
7:15 PM 62.2 °F 35.1 °F 36% 30.04 in 10.0 mi West 9.2 mph - N/A   Mostly Cloudy
7:35 PM 61.7 °F 35.1 °F 37% 30.05 in 10.0 mi West 6.9 mph - N/A   Mostly Cloudy
7:55 PM 60.1 °F 36.9 °F 42% 30.05 in 10.0 mi WNW 4.6 mph - N/A   Overcast
8:15 PM 59.0 °F 38.3 °F 46% 30.04 in 10.0 mi NNW 4.6 mph - N/A Rain Light Rain
8:35 PM 57.0 °F 41.9 °F 57% 30.03 in 10.0 mi NNE 3.5 mph - N/A Rain Light Rain
8:55 PM 54.7 °F 45.0 °F 70% 30.06 in 10.0 mi WNW 5.8 mph - N/A Rain Rain
9:15 PM 54.0 °F 44.1 °F 69% 30.09 in 10.0 mi NW 10.4 mph - N/A Rain Light Rain
9:35 PM 52.5 °F 44.2 °F 73% 30.08 in 10.0 mi NNW 8.1 mph - 0.01 in Rain Light Rain
9:55 PM 52.0 °F 44.2 °F 75% 30.06 in 10.0 mi North 5.8 mph - 0.01 in Rain Light Rain
10:15 PM 51.6 °F 44.6 °F 77% 30.07 in 10.0 mi NNW 4.6 mph - N/A   Light Drizzle
10:35 PM 50.5 °F 45.9 °F 84% 30.05 in 10.0 mi North 4.6 mph - 0.02 in Rain Light Rain
10:55 PM 50.5 °F 46.2 °F 85% 30.03 in 10.0 mi North 5.8 mph - 0.02 in Rain Rain
11:15 PM 50.2 °F 46.0 °F 86% 30.06 in 10.0 mi North 6.9 mph - N/A   Overcast
11:35 PM 50.5 °F 46.0 °F 85% 30.02 in 10.0 mi NNE 6.9 mph - N/A Rain Rain
11:55 PM 50.5 °F 44.8 °F 81% 30.02 in 10.0 mi NNE 6.9 mph - N/A Rain Rain